STARLINK-30238, 57296

Orbit data source: Space-Track

STARLINK-30238, 57296 is a payload satellite owned by SpaceX/Seattle (US) in LEO that was launched on Mon, 10 Jul 2023 UTC via an FALCON 9 launch vehicle from the Air Force Eastern Test Range (AFETR). Payload-class satellites include a variety of spacecraft equipped with specific instruments for various scientific and technological missions. These include communications satellites like Starlink; space stations such as the ISS; scientific satellites like the Hubble; Earth observation satellites from companies like Planet Labs, Umbra, and HawkEye 360; GPS; miniature CubeSats for education and research; and military/defense satellites.

Loading next visibility...
Identifier
57296, 2023-096G
Orbit
LEO
Country
Flag of USUS
Related business
Manufacturer
SpaceX/Seattle
Mission
Partially operational Commercial Communications
Bus & Motor
STARLINK V2M, Unknown motor
Mass
730 kg wet, ~700 kg dry
Launch date (UTC)
2023-07-10 (2 years ago)
Launch vehicle
FALCON 9
Launch site
Air Force Eastern Test Range (AFETR)
Object type
Payload
Rocket body
Debris
Shape & HBR
Box + 2 Pan, 14.5 m
Radar Cross Section
33.884 m², Large (>1 m²)

Expand to show TLE details & history
Last TLE update: 20 hours ago

TLE from 20 hours ago
0 STARLINK-30238
1 57296U 23096G   25241.22007117  .00075353  00000-0  36511-2 0  9994
2 57296  42.9955 177.2380 0016093 159.0103 201.1408 15.17514190118821
Epoch: 2025-08-29T05:16Z
TLE epoch observation values (Epoch: 2025-08-29T05:16:54.149Z)
Latitude
-0.00002°
Longitude
120.34051°
Altitude
523.477 km
Speed
7.598 km/s
True Right ascension
11h 48m 57s
True Declination
0° 00' 00"
Sunlit
Object was in daylight at epoch
Visualization orbit readout
Latitude
Unknown
Longitude
Unknown
Altitude
Unknown
Speed
Unknown
Apparent Right ascension
Unknown
Apparent Declination
Unknown
Sunlit
N/A
Visualization observer readout
Local Sidereal Time
17:05:53
Azimuth
Unknown
Elevation
Unknown
Doppler factor
Unknown
Orbital elements
Apogee altitude
526.387 km
Perigee altitude
504.2 km
Semi-major axis
6,893.431 km
Eccentricity
0.00161
Inclination
42.9955°
RAAN
177.238°
Arg. of periapsis
159.0103°
True anomaly
201.07441°
Mean anomaly
201.1408°
Eccentric anomaly
201.10759°
Mean motion
3.79219 °/min
Orbital period
94.93 mins
BSTAR
0.0036511
Loading maneuver chart data...
Computing Atmospheric mass density...
Loading historical data...
Loading historical data...
Loading historical data...
Loading historical data...
Loading historical data...
Loading historical data...
Loading historical data...

Documentation

Showing up to 5 results
|